Location: Memphis International Airport Police
(35.0443°N, 89.9815°W)
Time: 05:03:31
(UTC+00:00)

NOSS 3-1 (C) - Pass Details

Date: 26 September 2023
Orbit: 670 x 1537 km, 63.4° (Epoch: 01 December)

Event Time Altitude Azimuth Distance (km) Brightness Sun altitude
Rises 00:48:02 0° 189° (S) 2,998 6.1 -12.2°
Reaches altitude 10° 00:50:22 10° 181° (S) 2,108 5.2 -12.6°
Maximum altitude 00:54:43 38° 113° (ESE) 1,095 3.3 -13.5°
Drops below altitude 10° 00:59:34 10° 46° (NE) 2,368 5.2 -14.5°
Sets 01:02:20 0° 39° (NE) 3,420 6.1 -15.1°
